Huvudsida
METAR-TAF:

METAR-TAF

Flygplatser :

Sirri Island Airport

Sirri, Iran

latitud: 25-54-34N, longitud: 054-32-22E, höjd: 13 m

Aktuellt väderrapport

Denna rapport gjordes för 9 timmar och 8 minuter sedan, klockan 15:00 UTC
Stilla vind
Temperatur 23°C
Fuktighet 69%
Tryck 1014 hPa
Sikt: 3000 m
torrdis

METAR: OIBS 151500Z 00000KT 3000 HZ NSC 23/17 Q1014

Tid: 03:38 (00:08 UTC)


TAF: saknas

Aktuella väderrapporter och prognoser från 4000 flygplatser (METAR- och TAF-rapporter).

De tillgängliga stationerna syns som gula och röda prickar på kartan.

För musen över prickarna för att se namnen på stationerna.

Klicka sedan för att få väderrapporter och prognoser.

För att ändra kartan: Klicka på de gröna knapparna med ett svart kors på för att zooma in; den gröna knappen med ett streck på för att zooma ut; eller på de gröna pilarna för angränsande kartor.


METAR-TAF: